530  
ASUS41 KLWX 140811  
RWRLWX  
 
REGIONAL WEATHER ROUNDUP  
NATIONAL WEATHER SERVICE BALTIMORE MD/WASHINGTON DC  
400 AM EDT MON OCT 14 2019  
 
NOTE: "FAIR" INDICATES FEW OR NO CLOUDS BELOW 12,000 FEET  
WITH NO SIGNIFICANT WEATHER AND/OR S TO VISIBILITY
.  
TC=TEMPERATURE CELSIUS  
 
* =NON NWS SITE. STATION DOES NOT REPORT PRECIPITATION (E.G. RAIN,  
SNOW, ETC.), THUNDER, OR FOG.
 
 
DCZ001-MDZ009-015-VAZ040>042-051-053>054-140900-  
WASHINGTON METRO  
 
CITY SKY/WX TMP DP RH WIND PRES REMARKS
 
WASHINGTON NAT FAIR 55 52 89 W3 29.98S  
DULLES FAIR 45 42 89 CALM 29.97F  
ANDREWS AFB FOG 48 48 100 CALM 29.96S VSB 1/2  
FT BELVOIR FAIR 50 48 93 CALM 29.97F FOG  
QUANTICO FAIR 54 51 90 NW6 29.98F  
COLLEGE PARK* FAIR 48 46 93 CALM 29.96F  
LEESBURG* FAIR 43 43 100 CALM 29.99S  
MANASSAS* FAIR 44 42 93 CALM 29.98S  
GAITHERSBURG* FAIR 45 44 97 CALM 29.97F FOG  
 

 
 
MDZ006>007-011-014-140900-  
BALTIMORE METRO  
 
CITY SKY/WX TMP DP RH WIND PRES REMARKS
 
BWI AIRPORT FAIR 53 51 93 W3 29.96F  
MD SCIENCE CTR N/A 56 52 86 MISG 29.96F  
MARTIN STATE FAIR 54 54 100 CALM 29.97F  
ANNAPOLIS CLOUDY 56 56 100 CALM 29.96S FOG  
FORT MEADE* FAIR 46 45 93 CALM 29.99S  
 

 
 
MDZ012-015-019>023-140900-  
MARYLAND EASTERN SHORE  
 
CITY SKY/WX TMP DP RH WIND PRES REMARKS
 
OCEAN CITY CLOUDY 66 64 93 SW5 29.95F  
SALISBURY CLOUDY 65 63 93 NW7 29.95S FOG  
BAY BRIDGE AP* MOCLDY 55 N/A N/A CALM 29.97R HAZE  
CAMBRIDGE* CLOUDY 61 61 100 CALM 29.96S  
EASTON* CLOUDY 61 60 96 CALM 29.99S FOG  
 

 
 
MDZ017>025-140900-  
SOUTHERN MARYLAND  
 
CITY SKY/WX TMP DP RH WIND PRES REMARKS
 
PATUXENT RIVER CLOUDY 61 59 93 N3 29.96S  
ST INIGOES CLOUDY 64 58 80 NW3 29.96S  
LEONARDTOWN* NOT AVBL  
 

 
 
MDZ003>005-140900-  
NORTH CENTRAL MARYLAND  
 
CITY SKY/WX TMP DP RH WIND PRES REMARKS
 
FREDERICK* FOG 41 41 100 CALM 29.97F VSB 1/4  
HAGERSTOWN APT FAIR 44 41 89 NW3 29.97S  
 

 
 
MDZ501>502-140900-  
WESTERN MARYLAND  
 
CITY SKY/WX TMP DP RH WIND PRES REMARKS
 
OAKLAND* FAIR 46 32 57 SW9 29.99S  
CUMBERLAND* FAIR 39 38 99 N3 30.03F  
 

 
 
VAZ025>031-140900-  
SHENANDOAH VALLEY  
 
CITY SKY/WX TMP DP RH WIND PRES REMARKS
 
WINCHESTER* FAIR 37 37 100 CALM 29.96F  
FRONT ROYAL* FAIR 46 46 100 S3 29.96F  
LURAY* FAIR 43 43 100 CALM 29.99S  
NEW MARKET* CLOUDY 43 42 96 CALM 30.00S VSB 1/2  
STAUNTON* CLOUDY 38 37 98 CALM 30.01F FOG  
WAYNESBORO* MOCLDY 41 41 99 CALM 30.00S  
 

 
 
WVZ021-048>050-054>055-140900-  
EASTERN WEST VIRGINIA PANHANDLE  
 
CITY SKY/WX TMP DP RH WIND PRES REMARKS
 
MARTINSBURG FAIR 41 39 93 CALM 29.97F  
PETERSBURG* FOG 42 42 100 CALM 30.00S VSB<1/4  
 

 
 
VAZ036>039-050-140900-  
CENTRAL FOOTHILLS  
 
CITY SKY/WX TMP DP RH WIND PRES REMARKS
 
CHARLOTTESVILL FAIR 46 42 86 CALM 29.97F  
CULPEPER* FAIR 42 41 95 CALM 29.99F FOG  
ORANGE* FAIR 43 41 93 CALM 29.97F FOG  
GORDONSVILLE* N/A 45 45 100 CALM 29.97F FOG  
WARRENTON* FOG 40 38 91 CALM 29.97F VSB 1  
 

 
 
VAZ055>057-140900-  
NORTH AND CENTRAL PIEDMONT  
 
CITY SKY/WX TMP DP RH WIND PRES REMARKS
 
FREDERICKSBRG* FAIR 55 55 100 CALM 29.96F FOG  
STAFFORD* FAIR 51 51 100 CALM 30.01F  
 

 
 
NCZ024-NYZ072-PAZ021-071-VAZ022-071-140900-  
OTHER REGIONAL OBSERVATIONS  
 
CITY SKY/WX TMP DP RH WIND PRES REMARKS
 
NEW YORK CITY CLOUDY 60 54 80 W3 29.98F  
PHILADELPHIA CLOUDY 58 55 90 NE5 29.97S FOG  
PITTSBURGH FAIR 51 37 58 SW9 29.93F  
ROANOKE FAIR 55 51 86 CALM 30.02F  
RICHMOND CLOUDY 59 58 96 N5 29.96F FOG  
RALEIGH CLOUDY 66 66 100 W6 29.98S  
 

 
 
ANZ530>537-140900-  
MARINE OBSERVATIONS  
 
STATION/POSITION TIME TEMP WIND PRES
 
AIR SEA DIR/SP/G  
(UTC) (F) (DEG/KT/KT) (MB)  
THOMAS PT LIGHT 0800 59 67 250/ 4/ 5 1015.7F  
BALT KEY BRIDGE 0724 59 40/ 3/ 4 1014.5  
LEWISETTA 0724 61 66 270/ 4/ 4 1014.5  
SOLOMONS ISLAND 0724 61 69 330/ 3/ 4 1014.2  
PINEY POINT 0730 340/ 9/ 9 N/A  
 

 
 
 
 
CLICK HERE TO GO TO PREVIOUS BULLETINS.

The Nexlab VA Page
The Nexlab MD Page
The Nexlab WV Page Main Text Page